sat.trackr.live / text

‹ back to catalog

HULIANWANG DIGUI-109

NORAD 66919 · 2025-285E

PAYLOAD ACTIVE UNKNOWN

§ Identity

Operator
Country
PRC
Launch date
2025-12-06
Launch site
WSC
Launch vehicle
Mass (kg)
RCS (m²)

External: N2YO · Heavens-Above · Gunter

§ Orbital elements

Epoch: 2026-09-20T22:06:54.003168Z

Period
108.33 min
Inclination
50.0068°
Eccentricity
0.0000197
Mean motion
13.29320248 rev/d
Perigee alt
1,149.2 km
Apogee alt
1,149.5 km
Semi-major
7,527.5 km
B*
5.1325e-5
RAAN
162.6359°
Arg perigee
319.8495°
Mean anomaly
40.2363°
Rev number
3,880

§ Raw data

HULIANWANG DIGUI-1091 66919U 25285E   26263.92145837 -.00000100  00000+0  51325-4 0  99922 66919  50.0068 162.6359 0000197 319.8495  40.2363 13.29320248 38801

JSON: /api/v1/satellites/66919 · /tle

For live sub-satellite position, see the globe view (requires WebGL).

§ Visibility from observer

Set your observer location to see the next 7 days of passes ≥ 10°. The values pass through the URL so the page stays shareable.

No JS? Fill the form by hand. The geolocation button needs JavaScript.